Regional Weather Roundup
Issued by NWS

Home | Current Version | Previous Version | Graphics & Text | Print | Product List | Glossary On
Versions: 1 2 3 4 5 6 7 8 9 10 11 12 13 14 15 16 17 18 19 20 21 22 23 24 25 26 27 28 29 30 31 32 33 34 35 36 37 38 39 40 41 42 43 44 45 46 47 48 49 50
943
ASUS43 KMPX 201310
RWRMN
WEATHER ROUNDUP FOR MINNESOTA
NATIONAL WEATHER SERVICE TWIN CITIES/CHANHASSEN MN
800 AM CDT THU JUL 20 2017


NOTE: "FAIR" INDICATES FEW OR NO CLOUDS BELOW 12,000 FEET WITH NO
SIGNIFICANT WEATHER AND/OR OBSTRUCTIONS TO VISIBILITY. N/A MEANS
CURRENT SKY AND/OR WEATHER CONDITIONS ARE NOT AVAILABLE.

MNZ060>063-068>070-201400-
   Twin Cities Metro

CITY           SKY/WX    TMP DP  RH WIND       PRES   REMARKS
TWIN CITIES    CLOUDY    72  68  87 CALM      30.00S FOG
ST PAUL        CLOUDY    69  69 100 CALM      30.00R FOG
CRYSTAL        CLOUDY    69  65  86 CALM      29.99R FOG
BLAINE         FOG       68  68 100 CALM      30.00R VSB 1
LAKEVILLE      PTSUNNY   70  70 100 CALM      30.01R FOG
EDEN PRAIRIE   CLOUDY    72  68  87 CALM      30.00R FOG
SOUTH ST PAUL  CLOUDY    70  69  99 CALM      30.00S FOG
LAKE ELMO      FOG       68  68 100 S3        30.02R VSB 1/2
$$
MNZ001>005-007-008-013>017-022>024-027-028-201400-
   Northwest Minnesota

CITY           SKY/WX    TMP DP  RH WIND       PRES   REMARKS
BEMIDJI        SUNNY     65  63  94 NW7       30.01S
HALLOCK        SUNNY     61  57  88 N3        30.01S
ROSEAU         SUNNY     63  57  82 CALM      30.01S
WARROAD        SUNNY     63  57  82 NW6       30.01S
THIEF RVR FALL SUNNY     65  60  84 N3        30.03R
CROOKSTON      SUNNY     61  61 100 CALM      30.01S
FOSSTON        SUNNY     63  61  94 N5        30.03R FOG
DETROIT LAKES  FOG       64  63  94 CALM      30.03S VSB 1/4
MOORHEAD       FOG       63  63 100 CALM      30.01S VSB 1/2
PARK RAPIDS    CLOUDY    66  65  96 W3        30.02R
MAHNOMEN       FAIR      62  62 100 CALM      30.02R FOG
$$
MNZ006-009>011-018-025>026-201400-
   North Central Minnesota

CITY           SKY/WX    TMP DP  RH WIND       PRES   REMARKS
BAUDETTE       SUNNY     65  63  93 NW8       29.99R
FLAG ISLAND    SUNNY     63  57  82 W5        29.99R
INTL FALLS     SUNNY     64  62  93 W5        29.97R
WASKISH        PTSUNNY   64  63  94 NW5       30.01R
BIG FORK       CLOUDY    64  64 100 CALM      30.00R
LONGVILLE      SUNNY     66  66 100 W3        30.01R
GRAND RAPIDS   PTSUNNY   66  65  96 NW8       30.01S
CRANE LAKE     SUNNY     64  63  94 CALM      29.98R
ORR            PTSUNNY   64  61  88 W7        29.96R
COOK           MOSUNNY   64  63  94 W6        29.99R
WALKER         FAIR      64  63  97 W3        30.01R
$$
MNZ012-019>021-037-201400-
   Northeast Minnesota

CITY           SKY/WX    TMP DP  RH WIND       PRES   REMARKS
DULUTH         CLOUDY    66  65  96 NW7       29.98R
ELY            SUNNY     66  63  88 W6        29.97R
HIBBING        SUNNY     66  65  96 NW7       29.98R
EVELETH        SUNNY     63  59  87 CALM      30.00R
DULUTH HARBOR  SUNNY     66  63  88 SW6       29.96S
TWO HARBORS    SUNNY     72  66  83 NW5       29.93F
GRAND MARAIS     N/A     59  55  87 W5        29.90R
G MARAIS ARPRT SUNNY     66  57  72 NW5       29.95S
$$
MNZ029>031-032-039>041-046>048-054>057-064-201400-
   West Central Minnesota

CITY           SKY/WX    TMP DP  RH WIND       PRES   REMARKS
FERGUS FALLS   FOG       66  66 100 CALM      30.01R VSB<1/4
WHEATON        CLOUDY    70  66  88 W3        30.02R FOG
MORRIS         MOSUNNY   66  64  94 CALM      30.00S FOG
ALEXANDRIA     CLOUDY    67  65  93 NW5       30.04R
ELBOW LAKE     FOG       64  64 100 CALM      30.02R VSB 1/4
WADENA         CLOUDY    63  63 100 CALM      30.01S VSB 1/4
GLENWOOD       CLOUDY    66  64  94 NW3       30.02S FOG
APPLETON       FOG       64  63  94 CALM      30.00R VSB 1/2
BENSON         CLOUDY    64  63  94 CALM      30.02R FOG
ORTONVILLE     PTSUNNY   66  64  94 CALM      30.00S FOG
MADISON        FOG       68  68 100 CALM      30.01R VSB<1/4
WILLMAR        FAIR      66  66 100 CALM      30.02R FOG
$$
MNZ033>034-036-042>043-049>051-058-059-201400-
   Central Minnesota

CITY           SKY/WX    TMP DP  RH WIND       PRES   REMARKS
ST CLOUD       CLOUDY    66  65  96 CALM      30.00S FOG
SAUK CENTRE    FAIR      62  61  96 N5        30.02S
PAYNESVILLE    CLOUDY    65  65 100 CALM      30.02R FOG
AITKIN         SUNNY     64  63  94 CALM      30.00R
PINE RIVER     FOG       63  63 100 CALM      30.04S VSB 1/2
BRAINERD       SUNNY     67  64  90 NW5       30.01S
STAPLES        FOG       63  63 100 NW3       30.02R VSB<1/4
LONG PRAIRIE   FAIR      64  63  94 CALM      30.02F
LITTLE FALLS   CLOUDY    64  63  94 CALM      30.01S
LITCHFIELD     CLOUDY    66  66 100 CALM      30.02R
BUFFALO        CLOUDY    67  65  93 CALM      30.01S FOG
MAPLE LAKE     CLOUDY    68  68  99 CALM      30.01R FOG
HUTCHINSON     SUNNY     68  68 100 CALM      30.02R FOG
$$
MNZ037-044-045-052-053-201400-
   East Central Minnesota

CITY           SKY/WX    TMP DP  RH WIND       PRES   REMARKS
PRINCETON      CLOUDY    66  64  94 CALM      30.00S FOG
MORA           CLOUDY    64  64 100 CALM      30.02R
CAMBRIDGE      CLOUDY    66  64  94 CALM      29.98S
RUSH CITY      PTSUNNY   64  63  96 CALM      30.00S FOG
MOOSE LAKE     CLOUDY    64  63  94 W3        29.98R
HINCKLEY       FAIR      66  63  88 CALM      30.00R
CLOQUET        SUNNY     66  63  88 NW8       29.98S
MCGREGOR       MOSUNNY   64  63  94 S3        30.01R
$$
MNZ071>073-080-081-089-090-097-098-201400-
   Southwest Minnesota

CITY           SKY/WX    TMP DP  RH WIND       PRES   REMARKS
MONTEVIDEO     PTSUNNY   66  66 100 CALM      30.01R FOG
GRANITE FALLS  CLOUDY    68  68  98 CALM      30.03R FOG
CANBY          CLOUDY    67  66  96 CALM      30.02S FOG
MARSHALL       PTSUNNY   69  69 100 N5        30.01F FOG
REDWOOD FALLS  CLOUDY    69  66  90 N5        30.00R FOG
OLIVIA         CLOUDY    64  63  94 CALM      30.01R FOG
PIPESTONE      PTSUNNY   72  66  83 CALM      30.03R
WINDOM         MOSUNNY   70  68  94 N6        30.01S
WORTHINGTON    MOSUNNY   71  67  87 N5        30.04R
JACKSON        CLOUDY    70  68  94 CALM      30.02R
TRACY          CLOUDY    70  70 100 N5        30.01S FOG
SLAYTON        HVY RAIN  69  66  90 CALM      30.03R
$$
MNZ065>067-074>077-082>085-091>093-201400-
   South Central Minnesota

CITY           SKY/WX    TMP DP  RH WIND       PRES   REMARKS
MANKATO        CLOUDY    70  68  93 E6        30.01R
NEW ULM        PTSUNNY   70  66  88 S3        30.01R
ST JAMES       MOSUNNY   70  68  94 CALM      30.02R
FAIRMONT       PTSUNNY   70  68  93 N7        30.01R
GLENCOE        PTSUNNY   67  68 100 CALM      30.01R FOG
FARIBAULT      PTSUNNY   70  70 100 NE5       30.01S FOG
OWATONNA       CLOUDY    70  70 100 E8        30.01R FOG
WASECA         CLOUDY    70  68  94 NE3       30.02R FOG
ALBERT LEA     CLOUDY    72  70  94 E6        29.99S FOG
$$
MNZ078>079-086>088-094>096-201400-
   Southeast Minnesota

CITY           SKY/WX    TMP DP  RH WIND       PRES   REMARKS
ROCHESTER      MOSUNNY   71  69  93 SE6       30.02R
RED WING       FOG       72  70  94 CALM      29.99S VSB 3/4
STANTON        CLOUDY    71  69  94 SE3       30.00R
DODGE CENTER   PTSUNNY   70  68  94 E5        30.02R
WINONA         CLOUDY    72  70  94 CALM      29.99S
AUSTIN         MOSUNNY   72  66  83 E8        29.99S
PRESTON        CLOUDY    68  65  89 CALM      30.02R
$$
ABBREVIATIONS USED IN REMARKS
   TC - TEMPERATURES IN CELSIUS
  WCI - WIND CHILL INDEX
   HX - HEAT INDEX
  VSB - VISIBILITY
$$




USA.gov is the U.S. government's official web portal to all federal, state and local government web resources and services.